SCP
0 0 0 0 0 1 2 2 2 2 3 2 2 1 1 0 0 1 0 1 1 1 1 1 1 0 0 0 0 0 0 0 0 0 0 0 0 0 0 0 0 0 0
0 0 0 0 0 1 1 1 2 2 2 1 1 1 0 0 0 0 0 0 0 1 0 0 0 0 0 0 0 0 0 0 0 0 0 0 0 0 0 0 0 0 0
0 0 0 0 0 1 1 1 1 1 1 1 1 1 0 0 0 0 0 0 0 1 0 0 0 0 0 0 0 0 0 0 0 0 0 0 0 0 0 0 0 0 0
0 0 0 0 0 0 0 1 1 1 1 0 1 0 0 0 0 0 0 1 0 0 0 0 0 0 0 0 0 0 0 0 0 0 -0 -0 0 0 0 0 0 0 0
0 0 0 1 0 0 1 1 1 0 1 0 0 0 0 0 0 0 0 0 0 0 0 0 0 0 0 0 0 -0 -0 -0 -0 0 -0 -0 -0 0 0 0 0 0 0
0 0 1 1 0 0 0 0 0 0 0 1 0 0 0 0 0 0 0 0 0 0 0 0 0 0 0 0 0 -0 -0 -0 0 -0 -0 0 -0 0 0 0 0 0 0
0 0 0 0 0 0 0 0 0 0 0 0 0 0 0 0 0 0 0 0 0 0 0 0 0 0 0 -0 -0 0 0 0 -0 -0 -0 -0 0 0 0 0 0 0 0
0 -0 -0 0 0 -0 0 0 0 0 0 0 0 0 0 0 0 0 0 0 0 0 0 0 0 0 0 -0 -0 0 0 0 0 0 -0 -0 0 0 -0 0 0 0 0
-0 -0 -0 0 -0 0 0 0 0 0 0 0 0 0 0 0 0 0 0 0 0 0 0 0 -0 -0 0 -0 0 0 0 0 0 0 0 0 0 -0 -0 -0 0 0 0
-0 -0 0 0 0 0 0 0 0 0 0 0 0 0 0 0 0 0 0 0 0 0 0 -0 -0 -0 -0 0 0 0 0 0 0 0 0 0 0 0 -0 0 0 0 0
-0 -0 0 0 0 0 -0 0 0 0 0 0 0 0 0 0 0 0 0 0 0 0 0 -0 -0 -0 -0 0 0 0 0 0 0 0 0 -0 -0 0 0 0 0 0 0
-0 0 0 0 0 -0 -0 0 0 0 0 0 0 0 0 0 0 0 0 0 0 0 -0 0 0 0 -0 0 0 0 0 0 0 0 0 0 -0 -0 0 0 0 0 0
-0 -0 0 0 0 -0 0 -0 -0 0 0 0 0 0 0 0 0 0 0 0 0 -0 -0 -0 -0 -0 -0 0 0 0 0 0 0 0 0 0 0 0 0 0 0 0 0
-0 -0 0 0 -0 -0 -0 -0 -0 0 0 0 0 0 0 0 0 0 0 0 0 0 -0 0 -0 -0 -0 -0 0 0 0 0 0 0 0 0 -0 0 -0 0 0 0 0
-0 -0 0 -0 -0 -0 -0 -0 0 0 0 0 0 -0 0 0 0 0 0 0 0 0 0 -0 0 -0 -0 0 0 0 0 -0 -0 0 -0 0 0 0 0 0 -0 -0 0
0 0 -0 -0 -0 -0 -0 -0 -0 -0 -0 -0 -0 -0 -0 0 0 0 0 0 0 0 -0 -0 -0 -0 0 0 0 0 0 -0 -0 -0 0 0 0 0 -0 -0 -0 0 0
0 0 -0 -0 -0 -0 -0 -0 -0 -0 -0 -0 -0 -0 -0 0 0 0 0 0 0 -0 -0 -0 -0 0 0 0 0 0 0 0 0 0 0 0 0 -0 0 -0 -0 0 0
0 0 0 -0 -0 -0 -0 -0 -0 -0 -0 -0 -0 -0 -0 -0 0 0 0 0 0 -0 -0 -0 -0 -0 0 0 0 0 -0 -0 -0 -0 -0 -0 0 0 0 0 0 0 0
0 0 0 -0 -0 -0 -0 -0 -0 -0 -0 -0 -0 -0 -0 -0 0 0 0 0 0 0 -0 -0 -0 -0 0 -0 0 0 0 -0 -0 -0 -0 -0 -0 -0 -0 -0 0 0 0
0 0 0 -0 -0 -0 -0 -0 -0 -0 -0 0 -0 -0 -0 -0 -0 0 0 0 0 0 0 -0 -0 -0 0 -0 -0 0 0 -0 -0 -0 -0 -0 -0 -0 -0 -0 -0 0 -0
0 0 -0 -0 -0 -0 -0 -0 -0 -0 -0 -0 -0 -0 -0 -0 -0 0 0 0 0 0 0 -0 -0 0 0 0 0 0 0 0 -0 -0 -0 0 0 -0 -0 0 0 0 0
0 0 0 -0 -0 -0 -0 -0 -0 -0 -0 -0 -0 -0 -0 -0 0 0 0 0 0 0 0 0 -0 -0 -0 -0 0 -0 -0 -0 -0 -0 -0 -0 0 0 0 0 0 0 -0
0 0 0 -0 -0 -0 -0 0 -0 -0 -0 -0 -0 -0 -0 -0 0 0 0 0 0 0 0 0 0 0 0 0 0 0 -0 0 -0 -0 0 0 0 -0 0 -0 0 0 0
0 0 0 0 -0 -0 -0 0 -0 -0 -0 -0 -0 -0 -0 -0 0 0 0 0 0 0 0 0 0 0 0 0 0 0 -0 -0 -0 -0 0 -0 -0 0 0 0 0 0 0
0 0 0 0 -0 -0 -0 0 0 -0 -0 -0 -0 -0 -0 -0 0 0 0 0 0 0 0 0 0 0 0 0 0 0 0 0 -0 0 0 0 0 0 -0 -0 0 0 0
0 0 0 -0 0 -0 -0 0 0 0 -0 -0 -0 -0 -0 -0 0 0 0 -0 0 0 -0 0 0 0 0 0 0 0 -0 0 0 -0 0 0 0 -0 -0 -0 -0 -0 -0
Wind_Speed_500mb
44 44 66 55 49 37 42 41 42 43 48 56 54 55 52 44 30 31 36 35 34 35 34 41 39 37 36 35 33 29 30 27 30 31 32 32 33 33 34 37 44 38 36
62 55 43 47 45 43 41 37 38 44 52 50 42 29 30 40 32 30 36 34 41 43 38 40 35 32 31 26 23 23 24 26 28 30 26 17 28 32 31 34 42 41 38
54 57 56 42 47 44 37 31 35 47 45 38 28 23 27 25 31 28 36 44 40 35 36 28 32 31 27 21 20 18 22 22 26 31 22 10 9 15 23 32 36 38 41
49 53 49 44 45 40 31 28 35 41 39 31 30 33 37 32 30 34 29 37 35 33 29 22 25 23 19 18 17 18 21 23 28 28 38 16 3 7 13 35 34 28 40
79 58 51 47 46 34 26 27 31 33 34 33 43 33 33 27 19 18 24 23 25 26 26 26 24 20 18 16 17 19 18 18 19 21 21 27 13 19 8 16 36 34 28
56 40 45 53 43 31 27 30 34 37 44 38 35 27 31 22 26 23 21 18 24 27 23 23 20 18 15 15 13 13 8 10 13 21 20 22 19 25 22 20 33 33 28
29 45 61 54 45 36 35 34 45 51 44 43 32 28 31 32 26 24 23 22 23 17 14 20 23 13 12 12 15 7 8 13 17 21 25 18 13 14 16 18 33 33 29
39 68 68 57 47 43 39 45 53 43 45 43 32 27 30 19 16 16 18 19 12 8 9 18 15 11 9 14 10 9 10 9 9 12 20 19 16 20 16 21 33 33 36
65 74 63 57 53 46 42 54 46 38 40 31 22 17 18 13 15 14 15 13 7 6 9 13 11 10 18 11 6 9 7 9 12 16 19 18 12 12 15 17 33 41 37
70 63 58 56 52 45 47 46 39 37 35 27 20 20 14 9 11 11 7 7 9 10 8 10 12 15 18 11 6 8 5 5 9 12 15 16 16 10 16 16 34 29 33
77 72 64 61 51 47 49 43 40 37 36 26 24 19 16 10 6 7 7 5 9 11 8 15 20 21 14 9 3 5 11 7 2 7 9 13 15 16 18 20 32 31 40
78 73 72 66 55 54 52 48 43 40 35 23 26 17 12 5 6 9 10 8 14 16 22 18 15 17 13 6 6 9 4 2 4 5 10 13 13 14 24 29 32 30 32
78 75 72 67 59 58 54 48 43 40 34 32 25 19 7 6 15 9 7 8 17 23 21 15 17 17 17 14 10 8 4 5 12 15 16 14 17 26 24 27 26 26 26
81 79 73 67 61 58 52 49 42 38 36 37 30 19 6 3 12 13 12 13 19 25 22 18 15 13 14 11 9 10 10 13 17 18 15 16 20 28 26 17 14 21 32
73 77 74 69 63 59 52 49 44 41 37 41 26 17 11 9 11 14 14 15 17 25 24 22 18 16 12 12 9 10 17 14 10 12 13 13 14 18 19 18 18 20 28
73 75 73 70 67 61 56 48 50 40 39 43 25 23 16 13 6 6 17 18 16 25 25 27 18 16 11 7 8 10 11 12 12 11 17 15 11 11 11 12 7 9 33
75 74 75 73 70 63 57 50 51 45 39 39 32 26 19 17 11 7 18 19 17 25 26 24 20 18 13 12 12 18 17 15 15 11 12 9 15 15 16 18 18 29 46
72 74 72 71 67 61 54 50 50 44 40 40 29 29 25 22 18 6 9 21 18 22 26 25 19 15 18 20 13 16 20 24 21 16 10 8 17 15 17 28 33 48 53
75 74 70 69 68 62 57 52 50 42 42 40 37 31 25 25 21 10 14 23 21 24 25 21 17 19 25 23 18 20 23 21 18 13 12 14 13 17 19 33 45 58 59
76 76 72 71 68 61 57 53 52 44 43 42 39 30 28 29 24 11 15 21 19 26 26 20 21 23 28 25 16 14 14 17 19 16 14 17 25 20 26 36 48 63 73
38 76 76 75 69 63 59 55 54 47 44 44 38 36 32 34 21 12 16 17 22 27 24 22 27 26 22 20 16 11 17 18 20 20 27 29 27 29 41 37 46 61 72
26 66 79 74 68 65 60 56 56 45 46 47 42 41 41 34 23 12 18 14 22 32 27 28 27 23 20 20 14 16 16 24 23 27 36 31 29 37 34 40 40 54 61
15 29 71 73 69 64 58 55 55 48 49 52 51 43 43 30 23 18 24 15 20 37 38 34 28 25 22 20 26 23 25 34 32 37 36 35 38 36 39 36 42 49 53
20 8 35 71 72 65 59 46 56 49 51 57 54 49 42 32 27 21 28 22 26 38 37 34 29 28 27 29 31 25 42 46 40 39 42 37 37 33 41 41 50 52 52
31 12 21 70 69 65 59 52 57 53 55 61 58 55 46 38 34 27 34 24 21 16 23 27 27 32 33 37 35 42 47 41 42 41 46 43 46 48 46 45 42 44 46
35 20 15 72 72 66 59 55 61 58 61 65 64 61 52 44 39 34 43 37 25 22 17 11 12 20 26 37 38 39 40 39 44 43 43 41 43 46 48 47 44 38 41
Wind_Direction_500mb
270 280 269 260 260 243 245 235 231 234 231 216 210 206 213 209 203 206 224 238 241 244 251 254 276 276 278 282 273 257 252 236 244 238 240 245 247 245 240 228 220 220 224
254 250 251 264 258 245 232 229 234 230 219 214 209 218 214 210 219 234 228 230 237 251 268 268 265 272 279 275 272 250 241 239 221 224 238 258 250 240 228 217 210 209 210
247 246 257 256 241 227 227 227 224 209 209 209 202 180 174 193 216 217 223 229 243 261 264 275 264 271 271 269 267 255 238 235 227 229 224 203 230 216 213 206 212 211 214
263 249 253 237 227 219 219 226 210 202 206 201 185 172 189 193 192 208 223 239 248 260 272 283 276 266 267 268 282 267 251 240 234 232 221 200 196 166 197 219 220 229 224
262 256 245 219 204 205 213 205 188 181 179 167 172 184 183 194 215 216 231 231 251 274 285 272 255 261 272 278 261 254 242 228 217 219 207 201 228 220 236 230 219 221 214
254 229 187 185 184 190 195 185 172 169 162 173 183 194 194 198 195 200 218 248 271 276 272 253 235 255 272 267 237 221 206 222 230 223 205 211 255 226 229 229 205 199 195
226 172 167 170 175 182 181 167 160 160 165 179 175 185 185 204 206 213 235 255 278 267 244 229 225 247 267 216 207 210 256 246 245 225 217 226 220 238 216 218 184 179 177
180 170 167 168 169 174 168 159 160 164 175 180 184 198 216 205 206 223 250 266 274 257 228 210 223 241 216 193 185 229 216 222 210 212 221 227 212 216 204 209 177 174 172
159 157 160 163 166 166 161 159 163 168 170 176 180 190 174 178 216 246 269 263 254 220 197 209 207 205 170 183 190 187 197 217 216 212 220 225 195 197 215 216 188 182 163
147 152 156 161 162 157 154 159 164 163 160 170 191 167 173 209 243 262 214 197 169 160 163 178 172 164 169 193 209 171 203 215 178 189 209 218 208 185 220 207 190 193 178
151 156 156 161 159 153 159 161 166 160 168 181 170 169 197 209 206 184 177 168 182 156 146 127 139 138 177 198 206 182 194 192 228 231 212 228 213 190 208 202 187 182 176
153 155 158 159 157 159 166 168 169 166 173 177 158 184 184 247 188 153 173 167 158 147 133 134 142 149 169 190 168 168 236 18 3 112 97 108 136 168 173 177 183 176 176
149 153 158 158 160 164 168 170 172 171 174 170 165 167 173 178 168 158 161 157 160 150 139 153 168 173 171 168 197 177 151 129 113 103 94 87 113 144 146 151 163 156 154
149 153 156 160 163 168 169 172 174 175 174 176 173 165 157 113 160 160 151 133 161 160 147 148 125 147 156 151 135 138 126 114 125 123 118 111 120 142 147 155 145 159 156
148 153 157 162 166 170 171 173 178 176 179 181 176 168 154 136 121 155 158 141 151 156 159 145 152 156 156 148 150 153 133 127 130 120 129 158 124 164 170 189 176 185 176
150 156 162 166 171 172 172 171 180 177 182 188 184 167 154 148 103 110 161 160 152 163 157 160 170 167 174 169 190 168 154 141 140 109 125 138 151 172 172 161 157 172 176
155 160 168 170 174 174 174 173 180 174 184 185 179 167 166 163 180 141 157 163 151 157 152 175 182 174 193 181 162 141 128 118 119 115 114 108 125 135 140 126 129 163 166
156 165 171 173 176 175 175 173 181 177 182 180 179 171 168 172 182 190 177 167 163 160 166 169 169 179 175 167 163 138 127 127 131 146 136 122 133 140 143 131 136 153 157
168 172 175 175 175 175 176 174 181 180 181 191 186 178 177 175 186 179 160 162 163 169 175 166 177 168 164 161 148 137 136 141 147 156 150 161 153 148 152 138 151 156 156
171 173 174 175 176 177 177 175 181 182 184 187 184 178 184 178 183 187 155 158 160 170 168 162 154 153 152 150 150 169 170 163 161 154 166 176 165 158 160 150 154 159 157
159 174 174 178 178 178 180 178 183 186 186 186 181 187 192 183 191 183 152 156 163 159 177 168 151 153 150 145 145 150 134 143 133 123 123 124 139 161 161 161 160 164 164
104 176 174 176 179 182 183 180 186 187 187 186 180 188 187 184 184 186 161 160 168 163 171 167 159 163 153 151 157 156 144 143 128 122 124 115 128 137 141 153 164 162 163
57 146 179 177 181 185 188 184 187 185 189 184 185 188 188 187 197 191 168 160 171 170 170 171 164 160 155 143 144 149 151 142 134 123 119 120 127 130 134 145 151 162 169
3 58 188 181 182 189 191 192 186 185 191 185 187 186 191 189 190 187 171 165 152 164 168 174 178 173 153 154 145 145 152 146 142 132 127 124 131 128 134 136 146 154 166
351 335 209 192 191 190 191 190 187 187 193 190 189 189 192 197 190 191 176 179 168 144 156 171 183 179 168 160 146 140 145 147 149 147 142 137 137 134 134 135 145 157 162
337 311 319 201 198 194 190 190 190 191 195 194 192 196 198 195 193 183 180 192 200 210 210 167 136 179 180 167 161 153 154 155 157 159 158 155 157 151 147 144 146 156 169
Wind_Speed_850mb
44 44 66 55 49 37 42 41 42 43 48 56 54 55 52 44 30 31 36 35 34 35 34 41 39 37 36 35 33 29 30 27 30 31 32 32 33 33 34 37 44 38 36
62 55 43 47 45 43 41 37 38 44 52 50 42 29 30 40 32 30 36 34 41 43 38 40 35 32 31 26 23 23 24 26 28 30 26 17 28 32 31 34 42 41 38
54 57 56 42 47 44 37 31 35 47 45 38 28 23 27 25 31 28 36 44 40 35 36 28 32 31 27 21 20 18 22 22 26 31 22 10 9 15 23 32 36 38 41
49 53 49 44 45 40 31 28 35 41 39 31 30 33 37 32 30 34 29 37 35 33 29 22 25 23 19 18 17 18 21 23 28 28 38 16 3 7 13 35 34 28 40
79 58 51 47 46 34 26 27 31 33 34 33 43 33 33 27 19 18 24 23 25 26 26 26 24 20 18 16 17 19 18 18 19 21 21 27 13 19 8 16 36 34 28
56 40 45 53 43 31 27 30 34 37 44 38 35 27 31 22 26 23 21 18 24 27 23 23 20 18 15 15 13 13 8 10 13 21 20 22 19 25 22 20 33 33 28
29 45 61 54 45 36 35 34 45 51 44 43 32 28 31 32 26 24 23 22 23 17 14 20 23 13 12 12 15 7 8 13 17 21 25 18 13 14 16 18 33 33 29
39 68 68 57 47 43 39 45 53 43 45 43 32 27 30 19 16 16 18 19 12 8 9 18 15 11 9 14 10 9 10 9 9 12 20 19 16 20 16 21 33 33 36
65 74 63 57 53 46 42 54 46 38 40 31 22 17 18 13 15 14 15 13 7 6 9 13 11 10 18 11 6 9 7 9 12 16 19 18 12 12 15 17 33 41 37
70 63 58 56 52 45 47 46 39 37 35 27 20 20 14 9 11 11 7 7 9 10 8 10 12 15 18 11 6 8 5 5 9 12 15 16 16 10 16 16 34 29 33
77 72 64 61 51 47 49 43 40 37 36 26 24 19 16 10 6 7 7 5 9 11 8 15 20 21 14 9 3 5 11 7 2 7 9 13 15 16 18 20 32 31 40
78 73 72 66 55 54 52 48 43 40 35 23 26 17 12 5 6 9 10 8 14 16 22 18 15 17 13 6 6 9 4 2 4 5 10 13 13 14 24 29 32 30 32
78 75 72 67 59 58 54 48 43 40 34 32 25 19 7 6 15 9 7 8 17 23 21 15 17 17 17 14 10 8 4 5 12 15 16 14 17 26 24 27 26 26 26
81 79 73 67 61 58 52 49 42 38 36 37 30 19 6 3 12 13 12 13 19 25 22 18 15 13 14 11 9 10 10 13 17 18 15 16 20 28 26 17 14 21 32
73 77 74 69 63 59 52 49 44 41 37 41 26 17 11 9 11 14 14 15 17 25 24 22 18 16 12 12 9 10 17 14 10 12 13 13 14 18 19 18 18 20 28
73 75 73 70 67 61 56 48 50 40 39 43 25 23 16 13 6 6 17 18 16 25 25 27 18 16 11 7 8 10 11 12 12 11 17 15 11 11 11 12 7 9 33
75 74 75 73 70 63 57 50 51 45 39 39 32 26 19 17 11 7 18 19 17 25 26 24 20 18 13 12 12 18 17 15 15 11 12 9 15 15 16 18 18 29 46
72 74 72 71 67 61 54 50 50 44 40 40 29 29 25 22 18 6 9 21 18 22 26 25 19 15 18 20 13 16 20 24 21 16 10 8 17 15 17 28 33 48 53
75 74 70 69 68 62 57 52 50 42 42 40 37 31 25 25 21 10 14 23 21 24 25 21 17 19 25 23 18 20 23 21 18 13 12 14 13 17 19 33 45 58 59
76 76 72 71 68 61 57 53 52 44 43 42 39 30 28 29 24 11 15 21 19 26 26 20 21 23 28 25 16 14 14 17 19 16 14 17 25 20 26 36 48 63 73
38 76 76 75 69 63 59 55 54 47 44 44 38 36 32 34 21 12 16 17 22 27 24 22 27 26 22 20 16 11 17 18 20 20 27 29 27 29 41 37 46 61 72
26 66 79 74 68 65 60 56 56 45 46 47 42 41 41 34 23 12 18 14 22 32 27 28 27 23 20 20 14 16 16 24 23 27 36 31 29 37 34 40 40 54 61
15 29 71 73 69 64 58 55 55 48 49 52 51 43 43 30 23 18 24 15 20 37 38 34 28 25 22 20 26 23 25 34 32 37 36 35 38 36 39 36 42 49 53
20 8 35 71 72 65 59 46 56 49 51 57 54 49 42 32 27 21 28 22 26 38 37 34 29 28 27 29 31 25 42 46 40 39 42 37 37 33 41 41 50 52 52
31 12 21 70 69 65 59 52 57 53 55 61 58 55 46 38 34 27 34 24 21 16 23 27 27 32 33 37 35 42 47 41 42 41 46 43 46 48 46 45 42 44 46
35 20 15 72 72 66 59 55 61 58 61 65 64 61 52 44 39 34 43 37 25 22 17 11 12 20 26 37 38 39 40 39 44 43 43 41 43 46 48 47 44 38 41
Wind_Direction_850mb
270 280 269 260 260 243 245 235 231 234 231 216 210 206 213 209 203 206 224 238 241 244 251 254 276 276 278 282 273 257 252 236 244 238 240 245 247 245 240 228 220 220 224
254 250 251 264 258 245 232 229 234 230 219 214 209 218 214 210 219 234 228 230 237 251 268 268 265 272 279 275 272 250 241 239 221 224 238 258 250 240 228 217 210 209 210
247 246 257 256 241 227 227 227 224 209 209 209 202 180 174 193 216 217 223 229 243 261 264 275 264 271 271 269 267 255 238 235 227 229 224 203 230 216 213 206 212 211 214
263 249 253 237 227 219 219 226 210 202 206 201 185 172 189 193 192 208 223 239 248 260 272 283 276 266 267 268 282 267 251 240 234 232 221 200 196 166 197 219 220 229 224
262 256 245 219 204 205 213 205 188 181 179 167 172 184 183 194 215 216 231 231 251 274 285 272 255 261 272 278 261 254 242 228 217 219 207 201 228 220 236 230 219 221 214
254 229 187 185 184 190 195 185 172 169 162 173 183 194 194 198 195 200 218 248 271 276 272 253 235 255 272 267 237 221 206 222 230 223 205 211 255 226 229 229 205 199 195
226 172 167 170 175 182 181 167 160 160 165 179 175 185 185 204 206 213 235 255 278 267 244 229 225 247 267 216 207 210 256 246 245 225 217 226 220 238 216 218 184 179 177
180 170 167 168 169 174 168 159 160 164 175 180 184 198 216 205 206 223 250 266 274 257 228 210 223 241 216 193 185 229 216 222 210 212 221 227 212 216 204 209 177 174 172
159 157 160 163 166 166 161 159 163 168 170 176 180 190 174 178 216 246 269 263 254 220 197 209 207 205 170 183 190 187 197 217 216 212 220 225 195 197 215 216 188 182 163
147 152 156 161 162 157 154 159 164 163 160 170 191 167 173 209 243 262 214 197 169 160 163 178 172 164 169 193 209 171 203 215 178 189 209 218 208 185 220 207 190 193 178
151 156 156 161 159 153 159 161 166 160 168 181 170 169 197 209 206 184 177 168 182 156 146 127 139 138 177 198 206 182 194 192 228 231 212 228 213 190 208 202 187 182 176
153 155 158 159 157 159 166 168 169 166 173 177 158 184 184 247 188 153 173 167 158 147 133 134 142 149 169 190 168 168 236 18 3 112 97 108 136 168 173 177 183 176 176
149 153 158 158 160 164 168 170 172 171 174 170 165 167 173 178 168 158 161 157 160 150 139 153 168 173 171 168 197 177 151 129 113 103 94 87 113 144 146 151 163 156 154
149 153 156 160 163 168 169 172 174 175 174 176 173 165 157 113 160 160 151 133 161 160 147 148 125 147 156 151 135 138 126 114 125 123 118 111 120 142 147 155 145 159 156
148 153 157 162 166 170 171 173 178 176 179 181 176 168 154 136 121 155 158 141 151 156 159 145 152 156 156 148 150 153 133 127 130 120 129 158 124 164 170 189 176 185 176
150 156 162 166 171 172 172 171 180 177 182 188 184 167 154 148 103 110 161 160 152 163 157 160 170 167 174 169 190 168 154 141 140 109 125 138 151 172 172 161 157 172 176
155 160 168 170 174 174 174 173 180 174 184 185 179 167 166 163 180 141 157 163 151 157 152 175 182 174 193 181 162 141 128 118 119 115 114 108 125 135 140 126 129 163 166
156 165 171 173 176 175 175 173 181 177 182 180 179 171 168 172 182 190 177 167 163 160 166 169 169 179 175 167 163 138 127 127 131 146 136 122 133 140 143 131 136 153 157
168 172 175 175 175 175 176 174 181 180 181 191 186 178 177 175 186 179 160 162 163 169 175 166 177 168 164 161 148 137 136 141 147 156 150 161 153 148 152 138 151 156 156
171 173 174 175 176 177 177 175 181 182 184 187 184 178 184 178 183 187 155 158 160 170 168 162 154 153 152 150 150 169 170 163 161 154 166 176 165 158 160 150 154 159 157
159 174 174 178 178 178 180 178 183 186 186 186 181 187 192 183 191 183 152 156 163 159 177 168 151 153 150 145 145 150 134 143 133 123 123 124 139 161 161 161 160 164 164
104 176 174 176 179 182 183 180 186 187 187 186 180 188 187 184 184 186 161 160 168 163 171 167 159 163 153 151 157 156 144 143 128 122 124 115 128 137 141 153 164 162 163
57 146 179 177 181 185 188 184 187 185 189 184 185 188 188 187 197 191 168 160 171 170 170 171 164 160 155 143 144 149 151 142 134 123 119 120 127 130 134 145 151 162 169
3 58 188 181 182 189 191 192 186 185 191 185 187 186 191 189 190 187 171 165 152 164 168 174 178 173 153 154 145 145 152 146 142 132 127 124 131 128 134 136 146 154 166
351 335 209 192 191 190 191 190 187 187 193 190 189 189 192 197 190 191 176 179 168 144 156 171 183 179 168 160 146 140 145 147 149 147 142 137 137 134 134 135 145 157 162
337 311 319 201 198 194 190 190 190 191 195 194 192 196 198 195 193 183 180 192 200 210 210 167 136 179 180 167 161 153 154 155 157 159 158 155 157 151 147 144 146 156 169